Location: Unspecified
(51.2667°N, 0.0000°E)
Time: 09:18:29
(UTC+00:00)

nSIGHT-1 - Pass Details

Date: 22 September 2019
Orbit: 336 x 343 km, 51.6° (Epoch: 19 October)

Event Time Altitude Azimuth Distance (km) Brightness Sun altitude
Rises 18:52:18 0° 282° (WNW) 2,159 ? -9.1°
Reaches altitude 10° 18:54:20 10° 280° (W) 1,312 ? -9.4°
Maximum altitude 18:57:14 70° 196° (SSW) 374 ? -9.8°
Enters shadow 18:59:23 16° 114° (ESE) 998 ? -10.2°
